"Pseudo-MPEC" for P10PzZO

Created 2019 Jul 16 12:07:13 UT using Find_Orb

Click here for an explanation of pseudo-MPECs

 
 Astrometry: 
     P10PzZO  C2019 04 14Es*WqBCj2I(!-WM'cvZ5bP@im!MxFF]Wr%Uk$DdY+AxXa.#uCecTF51
     P10PzZO  C2019 05 02M\Le(cBThwpAstrometry3!:Q5yrg1O(?R$=q^Zeyb7djT`Ev^o0F51
     P10PzZO  C2019 05 029d;Nchou=xnredacted;o1f:ll%k.q/SKoRH-G2G1MOO;E$XCr'yF51
     P10PzZO  C2019 05 02*HmPclick:rA#iPVoy.q-U].Ad]pZ\tlYFtX*BKZ6xU9A_Ij_WalF51
     P10PzZO  C2019 07 05gx.c7XCt,5S,cf7_kqvhereCMie29UqJq=7o=y2/1/)=y6Jb;HH2F51
     P10PzZO  C2019 07 05xk_AVLZfw+7;v`2vsAa\$Y[;]xqx?0xeJsuPTaM9Rhifor9U?fv'F51
     P10PzZO  C2019 07 05!`^pC6explanationgu6a+hL/a!_o=3boU,bdK(aR+lCfiY-dInJF51
     P10PzZO ^C2019 07 08.25660814 51 06.770+11 09 49.32   ~7877 21.85GVNEOCP568
     P10PzZO ^C2019 07 08.25779014 51 06.763+11 09 48.85   ~7877 21.80GVNEOCP568
     P10PzZO ^C2019 07 08.25897214 51 06.757+11 09 48.45   ~7877 21.92GVNEOCP568
     P10PzZO ^C2019 07 16.26491214 50 50.132+10 19 10.20   ~7G6q 22.03GVNEOCP568
     P10PzZO ^C2019 07 16.26610114 50 50.133+10 19 09.70   ~7G6q 21.94GVNEOCP568
     P10PzZO ^C2019 07 16.26729314 50 50.133+10 19 09.23   ~7G6q 21.99GVNEOCP568

Station data:
(568) Mauna Kea  (N19.826116 W155.472200)  US/Hawaii.
(F51) Pan-STARRS 1, Haleakala  (N20.707235 W156.255910)  US/Hawaii.
   Observers N. Primak, A. Schultz, S. Watters, J. Thiel, T. Goggia. Measurer
   PS1 Science Consortium. 1.8-m Ritchey-Chrétien + CCD.

Orbital elements:  P10PzZO
   Perihelion 2021 Dec 23.144493 +/- 0.833 TT =  3:28:04 (JD 2459571.644493)
Epoch 2019 Jul 16.0 TT = JDT 2458680.5   Ju: 0.1425           AutoNEOCP
M 287.10098320 +/- 0.07             (J2000 ecliptic)
n   0.08180381 +/- 1.25e-5          Peri.  201.53149 +/- 0.051
a   5.25557640 +/- 0.000536         Node   100.68659 +/- 0.0054
e   0.0386375 +/- 0.000396          Incl.   29.30697 +/- 0.0017
P  12.05                   H 14.5   G  0.15   U  5.2  
q 5.05251380 +/- 0.0016    Q 5.45863899 +/- 0.00261
From 13 observations 2019 Apr. 14-July 16; mean residual 0".07
Residuals in arcseconds: 
190414 F51  .04+  .01+    190705 F51  .19+  .06+    190716 568  .04-  .03-    
190502 F51  .18-  .14-    190705 F51  .02-  .02+    190716 568  .02-  .06-    
190502 F51  .04+  .11+    190708 568  .00   .07+    190716 568  .02-  .06-    
190502 F51  .05+  .00     190708 568  .01-  .03+    
190705 F51  .05-  .07-    190708 568  .00   .06+    

Ephemerides (geocentric):
Date (UTC) HH   RA              Dec         delta   r     elong  mag " sig PA
---- -- -- --  -------------   -----------  ------ ------ -----  --- ---- ---
2019 07 16 12  14 50 50.362   +10 17 38.36  4.8945 5.2030 102.1 22.3 .136 149
2019 07 16 13  14 50 50.403   +10 17 22.01  4.8951 5.2030 102.0 22.3 .137 149
2019 07 16 14  14 50 50.445   +10 17 05.65  4.8956 5.2030 102.0 22.3 .138 149
2019 07 16 15  14 50 50.488   +10 16 49.29  4.8962 5.2030 102.0 22.3 .139 149
2019 07 16 16  14 50 50.533   +10 16 32.93  4.8967 5.2030 101.9 22.3 .140 149
2019 07 16 17  14 50 50.578   +10 16 16.56  4.8973 5.2030 101.9 22.3 .141 149
2019 07 16 18  14 50 50.625   +10 16 00.18  4.8978 5.2029 101.9 22.3 .142 149
2019 07 16 19  14 50 50.673   +10 15 43.80  4.8984 5.2029 101.8 22.3 .143 149
2019 07 16 20  14 50 50.723   +10 15 27.42  4.8989 5.2029 101.8 22.3 .144 149
2019 07 16 21  14 50 50.773   +10 15 11.03  4.8995 5.2029 101.8 22.3 .145 149
2019 07 16 22  14 50 50.825   +10 14 54.63  4.9000 5.2029 101.7 22.3 .146 149
2019 07 16 23  14 50 50.878   +10 14 38.23  4.9006 5.2029 101.7 22.3 .147 149
2019 07 17 00  14 50 50.933   +10 14 21.83  4.9011 5.2029 101.7 22.3 .148 149
2019 07 17 01  14 50 50.988   +10 14 05.42  4.9017 5.2029 101.6 22.3 .149 149
2019 07 17 02  14 50 51.045   +10 13 49.01  4.9022 5.2029 101.6 22.3 .150 149
2019 07 17 03  14 50 51.103   +10 13 32.59  4.9028 5.2028 101.6 22.3 .151 149
2019 07 17 04  14 50 51.162   +10 13 16.17  4.9033 5.2028 101.5 22.3 .152 149
2019 07 17 05  14 50 51.223   +10 12 59.74  4.9039 5.2028 101.5 22.3 .153 149
2019 07 17 06  14 50 51.284   +10 12 43.31  4.9044 5.2028 101.5 22.3 .154 149
2019 07 17 07  14 50 51.347   +10 12 26.87  4.9050 5.2028 101.4 22.3 .155 149
2019 07 17 08  14 50 51.411   +10 12 10.43  4.9055 5.2028 101.4 22.3 .156 149
2019 07 17 09  14 50 51.477   +10 11 53.98  4.9061 5.2028 101.4 22.3 .158 149
2019 07 17 10  14 50 51.543   +10 11 37.53  4.9066 5.2028 101.3 22.3 .159 149
2019 07 17 11  14 50 51.611   +10 11 21.08  4.9072 5.2027 101.3 22.3 .160 149
2019 07 17 12  14 50 51.680   +10 11 04.62  4.9077 5.2027 101.3 22.3 .161 149
2019 07 17 13  14 50 51.751   +10 10 48.15  4.9083 5.2027 101.2 22.3 .162 149
2019 07 17 14  14 50 51.822   +10 10 31.68  4.9088 5.2027 101.2 22.3 .163 149
2019 07 17 15  14 50 51.895   +10 10 15.21  4.9094 5.2027 101.2 22.3 .164 149
2019 07 17 16  14 50 51.969   +10 09 58.73  4.9099 5.2027 101.1 22.3 .165 149
2019 07 17 17  14 50 52.044   +10 09 42.25  4.9105 5.2027 101.1 22.3 .166 149
2019 07 17 18  14 50 52.121   +10 09 25.76  4.9110 5.2027 101.1 22.3 .167 149
2019 07 17 19  14 50 52.199   +10 09 09.27  4.9116 5.2027 101.0 22.3 .168 149
2019 07 17 20  14 50 52.277   +10 08 52.77  4.9121 5.2026 101.0 22.3 .169 148
2019 07 17 21  14 50 52.358   +10 08 36.27  4.9127 5.2026 101.0 22.3 .170 148
2019 07 17 22  14 50 52.439   +10 08 19.77  4.9132 5.2026 100.9 22.3 .171 148
2019 07 17 23  14 50 52.522   +10 08 03.26  4.9138 5.2026 100.9 22.3 .172 148
2019 07 18 00  14 50 52.606   +10 07 46.74  4.9143 5.2026 100.9 22.3 .173 148
2019 07 18 01  14 50 52.691   +10 07 30.22  4.9149 5.2026 100.8 22.3 .174 148
2019 07 18 02  14 50 52.777   +10 07 13.70  4.9154 5.2026 100.8 22.3 .175 148
2019 07 18 03  14 50 52.864   +10 06 57.17  4.9160 5.2026 100.8 22.3 .176 148
2019 07 18 04  14 50 52.953   +10 06 40.64  4.9165 5.2025 100.7 22.3 .177 148
2019 07 18 05  14 50 53.043   +10 06 24.10  4.9171 5.2025 100.7 22.3 .178 148
2019 07 18 06  14 50 53.135   +10 06 07.56  4.9177 5.2025 100.7 22.3 .179 148
2019 07 18 07  14 50 53.227   +10 05 51.01  4.9182 5.2025 100.6 22.3 .180 148
2019 07 18 08  14 50 53.321   +10 05 34.46  4.9188 5.2025 100.6 22.3 .181 148
2019 07 18 09  14 50 53.416   +10 05 17.90  4.9193 5.2025 100.6 22.3 .182 148
2019 07 18 10  14 50 53.512   +10 05 01.34  4.9199 5.2025 100.5 22.3 .183 148
2019 07 18 11  14 50 53.609   +10 04 44.78  4.9204 5.2025 100.5 22.3 .184 148